GW4858 Weather Reports


time (UTC)temp
C
wind
direction
speed
KPH
gust
KPH
rain 1hr
cm
rain 24hr
cm
rain mn
cm
humidity
%
barometer
mb
20260504004724 10 319 0.0 0.0 0.00 0.00 0.00 48 1015.3
20260504004221 10 315 0.0 0.0 0.00 0.00 0.00 47 1015.3
20260504003717 10 318 0.0 0.0 0.00 0.00 0.00 46 1015.4
20260504003214 10 317 0.0 0.0 0.00 0.00 0.00 45 1015.3
20260504002711 11 319 0.0 0.0 0.00 0.00 0.00 44 1015.2
20260504002208 11 319 0.0 0.0 0.00 0.00 0.00 43 1015.1
20260504001706 11 318 0.0 0.0 0.00 0.00 0.00 42 1014.9
20260504001202 12 314 0.0 0.0 0.00 0.00 0.00 41 1014.9
20260504000659 12 313 0.0 0.0 0.00 0.00 0.00 40 1014.9
20260504000156 12 317 0.0 0.0 0.00 0.00 0.00 39 1014.7
20260503235654 12 321 0.0 0.0 0.00 0.00 0.00 38 1014.8
20260503235151 13 321 0.0 0.0 0.00 0.00 0.00 37 1014.8
20260503234649 13 309 0.0 1.6 0.00 0.00 0.00 36 1014.5
20260503234147 13 314 0.0 1.6 0.00 0.00 0.00 36 1014.7
20260503233643 13 319 0.0 3.2 0.00 0.00 0.00 36 1014.5
20260503233139 13 241 0.0 1.6 0.00 0.00 0.00 35 1014.6
20260503232636 14 330 0.0 1.6 0.00 0.00 0.00 35 1014.5
20260503232133 14 285 1.6 1.6 0.00 0.00 0.00 34 1014.7
20260503231632 14 250 1.6 3.2 0.00 0.00 0.00 34 1014.6
20260503231127 15 337 0.0 4.8 0.00 0.00 0.00 33 1014.6
20260503230625 15 350 0.0 4.8 0.00 0.00 0.00 33 1014.4
20260503230122 15 341 1.6 3.2 0.00 0.00 0.00 33 1014.4
20260503225620 15 210 0.0 3.2 0.00 0.00 0.00 33 1014.4
20260503225119 15 345 3.2 3.2 0.00 0.00 0.00 33 1014.3
20260503224617 15 350 4.8 4.8 0.00 0.00 0.00 33 1014.3
20260503224114 15 227 3.2 9.7 0.00 0.00 0.00 33 1014.2
20260503223612 15 283 1.6 3.2 0.00 0.00 0.00 33 1014.2
20260503223108 15 295 0.0 4.8 0.00 0.00 0.00 33 1014.1
20260503222606 15 318 1.6 9.7 0.00 0.00 0.00 33 1014.1
20260503222103 15 318 1.6 11.3 0.00 0.00 0.00 33 1014.3
20260503221601 15 339 1.6 6.4 0.00 0.00 0.00 32 1014.1
20260503221058 15 339 6.4 11.3 0.00 0.00 0.00 33 1014.2
20260503220554 15 233 3.2 6.4 0.00 0.00 0.00 32 1014.2
20260503220052 15 336 1.6 3.2 0.00 0.00 0.00 32 1014.0
20260503215549 15 331 3.2 12.9 0.00 0.00 0.00 32 1014.0
20260503215046 15 322 0.0 4.8 0.00 0.00 0.00 32 1014.0
20260503214544 15 334 3.2 16.1 0.00 0.00 0.00 32 1014.1
20260503214040 15 305 1.6 6.4 0.00 0.00 0.00 32 1014.2
20260503213539 15 322 1.6 11.3 0.00 0.00 0.00 32 1014.0
20260503213035 15 339 0.0 6.4 0.00 0.00 0.00 33 1014.1
20260503212532 15 12 6.4 9.7 0.00 0.00 0.00 33 1014.2
20260503212030 15 350 3.2 4.8 0.00 0.00 0.00 33 1014.0
20260503211526 15 355 3.2 6.4 0.00 0.00 0.00 32 1013.8
20260503211022 15 302 3.2 4.8 0.00 0.00 0.00 33 1013.9
20260503210519 15 234 3.2 9.7 0.00 0.00 0.00 33 1013.9
20260503210015 15 27 4.8 6.4 0.00 0.00 0.00 33 1013.9
20260503205512 15 223 3.2 11.3 0.00 0.00 0.00 33 1013.7
20260503205008 15 346 3.2 4.8 0.00 0.00 0.00 33 1013.9
20260503204505 15 177 3.2 6.4 0.00 0.00 0.00 33 1013.7
20260503204002 15 9 1.6 6.4 0.00 0.00 0.00 33 1013.7
20260503203459 15 325 3.2 9.7 0.00 0.00 0.00 34 1013.8
20260503202956 15 341 3.2 6.4 0.00 0.00 0.00 33 1013.7
20260503202454 15 344 1.6 9.7 0.00 0.00 0.00 33 1013.7
20260503201952 15 1 1.6 12.9 0.00 0.00 0.00 34 1013.8
20260503201450 15 304 1.6 4.8 0.00 0.00 0.00 34 1013.7
20260503200947 15 333 0.0 3.2 0.00 0.00 0.00 34 1013.9
20260503200443 15 317 1.6 3.2 0.00 0.00 0.00 35 1013.9
20260503195940 15 342 8.0 9.7 0.00 0.00 0.00 36 1014.1
20260503195437 14 259 1.6 11.3 0.00 0.00 0.00 35 1014.0
20260503194933 15 325 1.6 16.1 0.00 0.00 0.00 35 1014.0
20260503194430 15 287 3.2 9.7 0.00 0.00 0.00 35 1014.1
20260503193926 15 16 6.4 11.3 0.00 0.00 0.00 36 1014.3
20260503193421 15 298 3.2 11.3 0.00 0.00 0.00 36 1014.0
20260503192917 14 254 6.4 12.9 0.00 0.00 0.00 37 1014.3
20260503192414 14 341 4.8 14.5 0.00 0.00 0.00 36 1014.2
20260503191909 14 359 1.6 12.9 0.00 0.00 0.00 37 1014.2
20260503191408 14 315 1.6 4.8 0.00 0.00 0.00 38 1014.3
20260503190903 14 6 0.0 12.9 0.00 0.00 0.00 37 1014.3
20260503190401 14 324 8.0 17.7 0.00 0.00 0.00 38 1014.4
20260503185857 15 359 3.2 16.1 0.00 0.00 0.00 38 1014.4
20260503185354 15 38 3.2 6.4 0.00 0.00 0.00 39 1014.5
20260503184854 13 345 1.6 12.9 0.00 0.00 0.00 38 1014.5
20260503184350 14 264 4.8 11.3 0.00 0.00 0.00 38 1014.7
20260503183846 13 100 1.6 6.4 0.00 0.00 0.00 39 1014.6
20260503183343 13 301 3.2 11.3 0.00 0.00 0.00 39 1014.8
20260503182840 14 332 3.2 4.8 0.00 0.00 0.00 39 1014.9
20260503182340 13 263 4.8 11.3 0.00 0.00 0.00 39 1014.8
20260503181836 13 335 6.4 12.9 0.00 0.00 0.00 38 1014.9
20260503181333 13 325 3.2 4.8 0.00 0.00 0.00 39 1014.9
20260503180830 12 312 3.2 4.8 0.00 0.00 0.00 39 1014.9
20260503180328 13 357 3.2 12.9 0.00 0.00 0.00 39 1014.6
20260503175824 13 288 4.8 9.7 0.00 0.00 0.00 39 1014.7
20260503175322 13 327 1.6 16.1 0.00 0.00 0.00 39 1014.7
20260503174817 13 283 0.0 4.8 0.00 0.00 0.00 40 1014.9
20260503174316 13 340 1.6 3.2 0.00 0.00 0.00 40 1014.9
20260503173811 13 24 3.2 9.7 0.00 0.00 0.00 40 1014.9
20260503173307 12 314 1.6 3.2 0.00 0.00 0.00 40 1014.9
20260503172804 12 325 3.2 6.4 0.00 0.00 0.00 40 1014.8
20260503172301 12 359 9.7 11.3 0.00 0.00 0.00 40 1014.8
20260503171757 12 6 3.2 11.3 0.00 0.00 0.00 41 1014.9
20260503171254 12 210 3.2 9.7 0.00 0.00 0.00 40 1015.0
20260503170752 12 333 3.2 9.7 0.00 0.00 0.00 39 1014.9
20260503170248 13 331 4.8 6.4 0.00 0.00 0.00 39 1014.8
20260503160210 12 5 6.4 6.4 0.00 0.00 0.00 43 1015.2
20260503150641 11 348 3.2 11.3 0.00 0.00 0.00 44 1015.1
20260503150136 12 297 4.8 6.4 0.00 0.00 0.00 45 1015.3
20260503131030 10 322 1.6 4.8 0.00 0.00 0.00 52 1015.2
20260503130527 10 331 3.2 4.8 0.00 0.00 0.00 52 1015.1
20260503110418 8 321 0.0 1.6 0.00 0.00 0.00 56 1014.3
20260503090309 8 27 0.0 3.2 0.00 0.00 0.00 53 1012.6
20260503081242 8 325 1.6 3.2 0.00 0.00 0.00 53 1012.6
20260503080737 8 316 0.0 0.0 0.00 0.00 0.00 53 1012.7
20260503080235 8 323 0.0 0.0 0.00 0.00 0.00 53 1013.0
20260503072712 9 343 0.0 1.6 0.00 0.00 0.00 51 1012.6
20260503072209 9 326 0.0 0.0 0.00 0.00 0.00 51 1012.7
20260503071705 9 326 0.0 0.0 0.00 0.00 0.00 51 1012.7
20260503071202 9 327 0.0 0.0 0.00 0.00 0.00 51 1012.7
20260503070659 10 325 0.0 0.0 0.00 0.00 0.00 50 1012.7
20260503070157 10 331 0.0 0.0 0.00 0.00 0.00 50 1012.7
20260503060121 10 331 0.0 1.6 0.00 0.00 0.00 51 1012.9
20260503055113 10 327 0.0 0.0 0.00 0.00 0.00 52 1013.1
20260503054608 10 320 0.0 1.6 0.00 0.00 0.00 52 1013.1
20260503054105 10 319 0.0 1.6 0.00 0.00 0.00 52 1013.0
20260503053604 10 325 1.6 1.6 0.00 0.00 0.00 53 1013.0
20260503053101 10 325 0.0 1.6 0.00 0.00 0.00 53 1013.1
20260503052558 10 323 0.0 0.0 0.00 0.00 0.00 54 1013.1
20260503052054 10 324 0.0 0.0 0.00 0.00 0.00 55 1013.0
20260503051550 10 284 1.6 1.6 0.00 0.00 0.00 55 1013.2
20260503051048 10 328 0.0 1.6 0.00 0.00 0.00 56 1013.0
20260503050543 10 332 0.0 1.6 0.00 0.00 0.00 56 1013.3
20260503050041 10 325 0.0 0.0 0.00 0.00 0.00 57 1013.3
20260503045538 10 318 0.0 0.0 0.00 0.00 0.00 56 1013.5
20260503045035 10 309 0.0 0.0 0.00 0.00 0.00 56 1013.6
20260503044532 10 320 0.0 0.0 0.00 0.00 0.00 56 1013.5
20260503044030 10 311 0.0 0.0 0.00 0.00 0.00 56 1013.4
20260503043525 10 321 0.0 0.0 0.00 0.00 0.00 56 1013.6
20260503043022 10 320 0.0 0.0 0.00 0.00 0.00 57 1013.6
20260503042519 10 316 0.0 0.0 0.00 0.00 0.00 58 1013.7
20260503042015 10 319 0.0 1.6 0.00 0.00 0.00 60 1013.8
20260503041512 10 321 0.0 0.0 0.00 0.00 0.00 61 1013.9
20260503041010 10 305 0.0 0.0 0.00 0.00 0.00 62 1013.7
20260503040507 10 314 0.0 0.0 0.00 0.00 0.00 63 1013.6
20260503040004 10 321 0.0 0.0 0.00 0.00 0.00 64 1013.7
20260503035501 10 330 0.0 0.0 0.00 0.00 0.00 66 1013.4
20260503034959 10 323 0.0 0.0 0.00 0.00 0.00 67 1013.8
20260503034456 10 330 0.0 0.0 0.00 0.00 0.00 69 1013.7
20260503033953 10 314 0.0 0.0 0.00 0.00 0.00 70 1013.7
20260503033450 10 318 0.0 0.0 0.00 0.00 0.00 71 1013.7
20260503032948 10 324 0.0 0.0 0.00 0.00 0.00 72 1013.5
20260503032446 10 320 0.0 0.0 0.00 0.00 0.00 73 1013.9
20260503031943 10 317 0.0 0.0 0.00 0.00 0.00 73 1013.6
20260503031441 10 313 0.0 0.0 0.00 0.00 0.00 74 1013.6
20260503030937 10 321 0.0 0.0 0.00 0.00 0.00 75 1013.5
20260503030434 10 319 0.0 0.0 0.00 0.00 0.00 75 1013.8
20260503025931 10 317 0.0 0.0 0.00 0.00 0.00 76 1013.6
20260503025428 10 319 0.0 0.0 0.00 0.00 0.00 76 1013.6
20260503024926 10 323 0.0 0.0 0.00 0.00 0.00 77 1013.5
20260503024422 10 322 0.0 0.0 0.00 0.00 0.00 77 1013.5
20260503023919 10 322 0.0 0.0 0.00 0.00 0.00 78 1013.6
20260503023416 10 322 0.0 0.0 0.00 0.00 0.00 78 1013.8
20260503022914 10 321 0.0 0.0 0.00 0.00 0.00 78 1013.8
20260503022413 10 320 0.0 0.0 0.00 0.00 0.00 78 1013.7
20260503021909 10 313 0.0 0.0 0.00 0.00 0.00 79 1013.7
20260503021406 10 319 0.0 0.0 0.00 0.00 0.00 79 1013.6
20260503020903 10 316 0.0 0.0 0.00 0.00 0.00 79 1013.8
20260503020401 10 320 0.0 0.0 0.00 0.00 0.00 79 1013.7
20260503015857 10 325 0.0 0.0 0.00 0.00 0.00 79 1013.8
20260503015354 10 325 0.0 0.0 0.00 0.00 0.00 79 1013.9
20260503014850 10 315 0.0 0.0 0.00 0.00 0.00 78 1013.8
20260503014348 10 298 0.0 0.0 0.00 0.00 0.00 78 1013.8
20260503013845 10 318 0.0 0.0 0.00 0.00 0.00 78 1013.7
20260503013342 10 323 0.0 0.0 0.00 0.00 0.00 77 1013.7
20260503012839 10 323 0.0 0.0 0.00 0.00 0.00 77 1013.8
20260503012337 10 327 0.0 0.0 0.00 0.00 0.00 76 1013.9
20260503011834 10 309 0.0 0.0 0.00 0.00 0.00 76 1013.9
20260503011331 10 324 0.0 0.0 0.00 0.00 0.00 75 1013.7
20260503010827 10 323 0.0 0.0 0.00 0.00 0.00 75 1013.7
20260503010324 10 326 0.0 0.0 0.00 0.00 0.00 74 1013.5
20260503005821 10 322 0.0 0.0 0.00 0.00 0.00 74 1013.6
20260503005318 10 319 0.0 0.0 0.00 0.00 0.00 73 1013.7